Погода в Келлоге

Погода в Келлоге : погода сейчас, прогноз погоды и архив. Всё, что Вы хотите узнать о погоде в Келлоге!

Поиск расширенной информации на нашем сайте:

Другие новости

Новости СМИ2

Главная страница сайта

Новости сайта

03.07.2017

Напоминаем, что на нашем специализированном сайте Метеоцентр.Азия вы можете получить высокодетализированные автоматические прогнозы погоды по пунктам России, СНГ и мира в авиационном формате (включающие направление и скорость ветра, видимость, явления погоды, количество и форму облачности, нижнюю и верхнюю границу облачности).

Рекомендуем: Силиконовая фасадная краска.

Погода в Келлоге - сегодня

Время (UTC), дата Ветер
(°,м/с) 
Видим.   Явления Облачность Т
(°С)
Тd
(°С)
f(%) Тe
(°С)
Pmin
(гПа)
dP
(гПа)
Po
(мм)
O2
(г/м3)
Тmin Tmax R s Состояние
почвы
12 16.04.18 240 (ЮЗ) н/о    н/о 
-0.8 -12.1 42 -2  999.6  0.4  744  302    -0.3       
15 16.04.18 тихо ()   н/о    н/о 
-7.2 -11.7 70 -7  999.8  0.1  744  309           
18 16.04.18 360 (С) н/о    н/о 
-6.7 -11 71 -8  998.7  -1  743  308           
00 17.04.18 //0 (С) //  н/о    н/о 
-9.5 -14.6 66 -10  997.1  -1  742  311  -9.6      80  неравномерный
сухой снег
100% 
03 17.04.18 360 (С) н/о    н/о 
-6.7 -11.9 66 -10  996.6  -0.4  742  307           
06 17.04.18 330 (СЗ) 5-11{11}  н/о    н/о 
-5 -14.1 49 -9  997.5  0.9  742  306           
09 17.04.18 310 (СЗ) 5{12}  н/о    н/о 
-4.8 -14.9 45 -9  999.9  2.5  744  306           
12 17.04.18 //0 (С) //-10{10}  н/о    н/о 
-5.9 -15.5 47 -6  1003.7  3.6  747  309    -4.5       
15 17.04.18 300 (СЗ) 4{10}  н/о    н/о 
-9.5 -16.8 55 -13  1006.8  749  314           
18 17.04.18 300 (СЗ) н/о    н/о 
-12.6 -17.6 66 -16  1009.3  2.4  751  319           
21 17.04.18 260 (З) н/о    н/о 
-15.8 -19.1 76 -18  1011.5  2.1  753  323           
00 18.04.18 //0 (С) //  н/о    н/о 
-17.5 -20.5 77 -18  1013.7  2.1  754  326  -17.7      80  неравномерный
сухой снег
100% 
03 18.04.18 280 (З) н/о    н/о 
-14.7 -20.3 62 -18  1015.5  1.9  756  323           
06 18.04.18 270 (З) н/о    н/о 
-11.5 -19 54 -15  1016.8  1.3  757  320           
09 18.04.18 270 (З) н/о    н/о 
-7.4 -19.1 39 -10  1017.3  0.7  757  315           
12 18.04.18 //0 (С) //  н/о    н/о 
-6.5 -19.6 35 -7  1017.3  757  314    -6.3       
15 18.04.18 230 (ЮЗ) н/о    н/о 
-10.8 -18.6 53 -14  1018.1  0.7  758  319           
18 18.04.18 180 (Ю) н/о    н/о 
-14.8 -19.8 66 -15  1017.9  -0.3  757  324           
21 18.04.18 160 (Ю) н/о    н/о 
-17.7 -20.9 76 -18  1017.4  -0.6  757  328           
00 19.04.18 //0 (С) //  н/о    н/о 
-16.9 -21 70 -17  1016.4  -1  756  326  -18.9      80  неравномерный
сухой снег
100% 
03 19.04.18 180 (Ю) н/о    н/о 
-8.9 -18.8 45 -11  1014.9  -1.2  755  316           
06 19.04.18 180 (Ю) н/о    н/о 
-3.3 -16.4 36 -5  1012.6  -2.1  754  309           
09 19.04.18 190 (Ю) н/о    н/о 
-1.6 -12.8 42 -4  1010.7  -1.8  752  306           
12 19.04.18 //0 (С) //{10}  н/о    н/о 
-1.3 -11 48 -1  1009.8  -0.9  752  305    -1.2       
15 19.04.18 180 (Ю) 2{10}  н/о    н/о 
-1.9 -10.2 53 -3  1009.6  -0.2  751  306           
Время (UTC), дата Ветер
(°,м/с) 
Видим.   Явления Облачность Т
(°С)
Тd
(°С)
f(%) Тe
(°С)
Pmin
(гПа)
dP
(гПа)
Po
(мм)
O2
(г/м3)
Тmin Tmax R s Состояние
почвы

Для получения пояснительной информации подведите курсор к названию столбца.

ПОГОДА в Келлоге - архив

Всё, что Вы хотите узнать о погоде в Келлоге - удобно и подробно!

Выберите нужную дату (начиная с 1 января 2015* года) и нажмите кнопку "Найти".
Будут отображены архивные сводки погоды по пункту Келлог, начиная с указанной даты.


Отображать данные в формате CSV (для использования в таблицах Excel)


Внимание! Наш архив погоды предназначен исключительно для личного некоммерческого использования в познавательных целях. Если Вам необходимы официальные справки о состоянии погоды (для производственных, юридических, коммерческих и т.п. целей), обращайтесь в органы Росгидромета.

*Примечание: данная дата относится к архиву по метеостанциям СССР (Россия, СНГ, Балтия).
Архив по метеостанциям Зарубежной Европы и Азии (кроме Китая) хранится 10 дней, по другим регионам земного шара (Китай, Африка, Америка, Австралия, Океания) - 1 день.

Келлог - район местоположения метеостанции


Название, широта, долгота, высота метеостанции:
Келлог 62.4°ш. 86.6°д. 58 м над ур. моря [Российская Федерация]

Дополнительная информация

В oтличие oт бoльшинства пoгoдных сайтoв мы публикуем пoдрoбную метеoинфoрмацию в детальнoм прoфессиoнальнoм фoрмате.

Характеристики температуры и влажнoсти вoздуха измеряются на высoте 2 м в тени вдали oт зданий и деревьев.
Скoрoсть ветра измеряется на высoте 10 м (на урoвне рoста челoвека скoрoсть ветра ниже в 1.5-2 раза). Если метеoстанция нахoдится в гoрoде или в лесу, тo скoрoсть ветра занижена на 2-4 м/с пo сравнению с oткрытым местoм. Скoрoсть ветра над акватoриями крупных рек и oзёр, а также на вершинах хoлмoв на 2-5 м/с выше, чем в oбычных услoвиях.
Атмoсфернoе давление в разных тoчках местнoсти мoжет значительнo oтличаться oт давления на метеoстанции, в зависимoсти oт услoвий рельефа (при пoдъёме на 10 м давление пoнижается примернo на 1 мм рт.ст.).